www.pogodaiklimat.ru

Погода и климат >> Архив погоды >> Ирак >> Diwaniya


ПОГОДА в Diwaniya

  • Прогноз погоды в Diwaniya
  • Монитор погоды в Diwaniya
  • Климат города

АРХИВ ПОГОДЫ в Diwaniya

Время (UTC), дата Ветер
(напр.,м/с)
 
Видим.   Явления Облачность Т
(С)
Тd
(С)
f
(%)
Тe
(С)
Тes
(С)
Комфортность P
(гПа)
Po
(гПа)
Тmin
(С)
Tmax
(С)
R
(мм)
R24
(мм)
S
(см)
09 11.08 СЗ 2 10 км 4/1 1050 м
[Cu hum Ac trans Ci fib]
+45.8 +19.1 22 +50 +65 опасность
перегрева
998.2 998.0
12 11.08 СЗ 2 10 км 4/1 1050 м
[Cu hum Ac trans Ci fib]
+45.8 +19.1 22 +50 +58 опасность
перегрева
998.2 998.0
15 11.08 СЗ 3 10 км 3/0
[Ci sp]
+46.6 +17.3 19 +49 +49 опасность
перегрева
997.6 998.0
21 11.08 штиль 0 10 км ясно +36.7 +18.1 34 +41 +41 опасность
перегрева
999.1 999.0
00 12.08 СЗ 2 10 км ясно +34.3 +15.5 33 +36 +36 душно 998.4 998.0
03 12.08 СЗ 2 10 км ясно +31.8 +12.7 31 +32 +33 жарко 999.0 999.0
06 12.08 СЗ 2 10 км ясно +37.0 +16.5 30 +39 +51 опасность
солнечного
удара
1000.0 1000.0 +31.0
09 12.08 СЗ 2 10 км ясно +44.1 +17.5 22 +47 +67 опасность
перегрева
999.2 999.0
12 12.08 СЗ 3 10 км ясно +47.3 +19.1 20 +51 +60 опасность
перегрева
998.0 998.0
18 12.08 СЗ 2 10 км ясно +39.0 +20.1 34 +45 +45 опасность
перегрева
999.1 999.0 +48.3
00 13.08 штиль 0 10 км ясно +32.8 +12.3 29 +33 +33 жарко 998.8 999.0
03 13.08 С 2 10 км ясно +32.4 +12.7 30 +33 +33 жарко 998.8 999.0
06 13.08 штиль 0 10 км ясно +38.2 +16.1 27 +40 +55 опасность
солнечного
удара
1000.2 1000.0 +31.4
09 13.08 СЗ 2 10 км ясно +46.8 +12.8 14 +47 +67 опасность
перегрева
999.7 1000.0
12 13.08 СЗ 2 10 км 3/3 1050 м
[Cu hum]
+49.4 +12.6 12 +49 +57 опасность
перегрева
999.1 999.0
15 13.08 СЗ 2 10 км ясно +47.0 +15.6 17 +49 +49 опасность
перегрева
999.1 999.0
21 13.08 СЗ 2 10 км ясно +37.8 +15.2 26 +39 +39 очень
душно
1000.1 1000.0
00 14.08 С 3 10 км ясно +34.0 +13.0 28 +34 +34 очень
жарко
1000.3 1000.0
03 14.08 С 3 10 км 5/0
[Ac trans]
+31.0 +11.2 30 +31 +31 жарко 1001.3 1001.0
06 14.08 СЗ 3 10 км 5/0
[Ac trans Ci fib]
+37.8 -1.1 9 +34 +41 очень
жарко
1002.4 1002.0 +30.5
12 14.08 СЗ 4 10 км ясно +46.4 +16.2 18 +48 +56 опасность
перегрева
1001.1 1001.0
15 14.08 СЗ 2 10 км ясно +44.6 +21.0 26 +50 +51 опасность
перегрева
1001.0 1001.0
18 14.08 СЗ 2 10 км ясно +38.8 +19.1 32 +43 +43 опасность
перегрева
1001.8 1002.0 +47.4
21 14.08 СЗ 3 10 км ясно +32.8 +17.0 39 +36 +36 очень
душно
1002.2 1002.0
00 15.08 С 3 10 км ясно +35.4 +15.6 31 +37 +37 очень
душно
1001.2 1001.0
03 15.08 С 3 10 км ясно +31.8 +17.0 41 +35 +36 очень
душно
1002.1 1002.0
06 15.08 С 2 10 км ясно +36.8 +16.1 29 +39 +50 очень
душно
1003.3 1003.0 +31.5
09 15.08 СЗ 2 10 км ясно +44.0 +15.5 19 +45 +65 опасность
перегрева
1002.1 1002.0
12 15.08 СЗ 3 10 км ясно +45.8 +10.8 13 +45 +54 опасность
перегрева
1001.4 1001.0
15 15.08 СЗ 2 10 км ясно +43.6 +15.8 20 +45 +45 опасность
перегрева
1001.0 1001.0
18 15.08 штиль 0 10 км ясно +37.7 +20.1 36 +43 +43 опасность
перегрева
1002.0 1002.0 +46.5
21 15.08 штиль 0 10 км ясно +37.0 +14.9 27 +38 +38 душно 1001.5 1002.0
00 16.08 СЗ 1 10 км ясно +34.3 +14.0 30 +35 +35 очень
жарко
1002.1 1002.0
03 16.08 штиль 0 10 км ясно +30.8 +17.9 46 +35 +36 очень
душно
1001.8 1002.0
06 16.08 Ю 2 10 км ясно +37.2 +13.8 25 +38 +49 душно 1003.7 1004.0 +30.0
09 16.08 В 2 10 км ясно +44.8 +10.8 14 +44 +64 опасность
перегрева
1002.5 1003.0
12 16.08 ЮВ 2 10 км 6/0
[Ac trans Ci sp]
+46.6 +13.0 14 +46 +54 опасность
перегрева
1000.5 1001.0
18 16.08 В 3 10 км 8/6 1050 м
[Cu Sc Ac trans]
+41.6 +13.6 19 +42 +42 опасность
перегрева
1000.2 1000.0 +47.5
21 16.08 В 4 10 км 6/6 1050 м
[Cu Sc]
+39.2 +11.4 19 +38 +38 очень
жарко
1000.6 1001.0
00 17.08 ЮВ 4 10 км 8/8 1050 м
[Cu Sc]
+37.2 +10.4 20 +36 +36 очень
жарко
999.9 1000.0
09 17.08 Ю 11 4000 м пыльный позёмок 8/0
[Cs]
+46.0 +7.6 10 +44 +44 опасность
перегрева
1000.3 1000.0
12 17.08 Ю 5 5000 м пыль 8/0
[Cs]
+46.8 +10.1 12 +45 +50 опасность
перегрева
999.7 1000.0
18 17.08 штиль 0 10 км ясно +39.2 +18.6 30 +43 +43 опасность
перегрева
1000.6 1001.0 +48.0
21 17.08 штиль 0 6000 м пыль ясно +36.4 +18.3 35 +41 +41 опасность
перегрева
1000.7 1001.0
00 18.08 С 3 6000 м пыль 9/9
[Cu med, cong]
+36.4 +14.2 27 +37 +37 очень
жарко
1000.6 1001.0
03 18.08 С 2 10 км 9/0
[Ac trans]
+36.0 +12.5 24 +36 +36 очень
жарко
1001.0 1001.0

 

Местоположение метеостанции Diwaniya (Ирак): широта 31.98 долгота 44.98 высота над уровнем моря 20 м.

В архиве по умолчанию представлена погода в Diwaniya за последнюю неделю. Архивные данные за месяц целиком и за предыдущие месяцы, начиная с января 2011 года, Вы можете получить, выбрав интересующий диапазон дат из раскрывающегося списка и нажав кнопку "Ввод!".

Внимание! Время в таблицах - всемирное. Для получения местного времени необходимо прибавить поправку, которая в Diwaniya равна 3 ч.

Смотрите также архив погоды в соседних городах и на ближайших метеорологических станциях:

Погода в Najaf (Ирак) (62 км)
Погода в Hella (Ирак) (72 км)
Погода в Samawah (Ирак) (80 км)
Погода в Ubaydah Bin Al Jarrah (Ирак) (92 км)
Погода в Kut-Al-Hai (Ирак) (103 км)
Погода в Azizyah (Ирак) (105 км)
Погода в Rifai (Ирак) (110 км)
Погода в Karbalaa (Ирак) (115 км)
Погода в Badrah (Ирак) (154 км)
Погода в Nasiriya (Ирак) (155 км)

Пояснения к столбцам:

Ветер - указаны скорость ветра в м/с - средняя за 10 мин, порывы в срок и между сроками (в фигурных скобках) и направление, откуда дует ветер: С - северный, СВ - северо-восточный, В - восточный, ЮВ - юго-восточный, Ю - южный, ЮЗ - юго-западный, З - западный, СЗ - северо-западный.
Видимость - горизонтальная дальность видимости в метрах или километрах. При видимости от 1 до 10 км при отсутствии осадков обычно наблюдается дымка, при ухудшении видимости до 1 км и менее - туман. В сухую погоду видимость может ухудшаться дымом, пылью или мглою.
Явления - указаны атмосферные явления, наблюдавшиеся в срок или в последний час перед сроком; фигурными скобками обозначены явления, наблюдавшиеся между сроками (за 1-3 часа до срока); квадратными скобками обозначены град или гололедные отложения с указанием их диаметра в мм.
Облачность - указаны через наклонную черту общая и нижняя облачность в баллах и высота нижней границы облаков в метрах; квадратными скобками обозначены формы облаков: Ci - перистые, Cs - перисто-слоистые, Cc - перисто-кучевые, Ac - высококучевые, As - высокослоистые, Sc - слоисто-кучевые, Ns - слоисто-дождевые, Cu - кучевые, Cb - кучево-дождевые. Подробнее классификацию облаков см. в Атласе облаков (PDF).
T - Температура воздуха - температура, измеренная на высоте 2 м над землей.
Td - Температура точки росы - температура, при понижении до которой содержащийся в воздухе водяной пар достигнет насыщения.
f - Относительная влажность воздуха - влажноcть воздуха, измеренная на высоте 2 м над землей.
Te - Эффективная температура - температура, которую ощущает одетый по сезону человек в тени. Характеристика душности погоды. При расчете учитывается влияние влажности воздуха и скорости ветра на теплоощущения человека.
Tes - Эффективная температура на солнце - температура, которую ощущает человек, с поправкой на солнечный нагрев. Характеристика знойности погоды. Зависит от высоты солнца над горизонтом, облачности и скорости ветра. Ночью, в пасмурную погоду, а также при ветре 12 м/с и более поправка равна нулю.
P - Атмосферное давление - приведенное к уровню моря атмосферное давление.
Po - Атмосферное давление - измеренное на уровне метеостанции атмосферное давление.
Tmin - Минимальная температура - минимум температуры воздуха на высоте 2 м над землей.
Tmax - Максимальная температура - максимум температуры воздуха на высоте 2 м над землей.
R - Количество осадков - Количество выпавших осадков за период времени, мм. При наведении курсора мыши на число - период времени, за который выпало указанное количество осадков.
R24 - Количество осадков - Количество выпавших осадков за 24 часа, мм.
S - Снежный покров - Высота снежного покрова, см. При наведении курсора мыши на число - состояние снежного покрова и степень покрытия местности в баллах.